Regional Weather Roundup
Issued by NWS San Diego, CA

Home | Current Version | Previous Version | Text Only | Print | Product List | Glossary On
Versions: 1 2 3 4 5 6 7 8 9 10 11 12 13 14 15 16 17 18 19 20 21 22 23 24 25 26 27 28
000
ASUS46 KSGX 291611
RWRSGX

SAN DIEGO HOURLY WEATHER ROUNDUP
NATIONAL WEATHER SERVICE SAN DIEGO CA
900 AM PDT FRI JUL 29 2016

NOTE: "FAIR" INDICATES FEW OR NO CLOUDS BELOW 12,000 FEET WITH NO
SIGNIFICANT WEATHER AND/OR OBSTRUCTIONS TO VISIBILITY.

CAZ042-043-060-061-PZZ750-775-291700-

GREATER SAN DIEGO AREA

CITY           SKY/WX    TMP DP  RH WIND       PRES   REMARKS
LINDBERGH FLD  PTSUNNY   74  68  81 NW5       29.86S
POINT LOMA       N/A     75  67  77 W10         N/A
NATIONAL CITY    N/A     76  70  83 SW5       29.86S
CHULA VISTA      N/A     77  71  81 W1        29.78R
IMPERIAL BEACH MOSUNNY   78  68  71 SW8       29.87R
BROWN FIELD    SUNNY     78  65  63 W5        29.87R
MIRAMAR MCAS   MOSUNNY   79  66  64 VRB5      29.86R
MONTGOMERY FLD SUNNY     77  66  68 CALM      29.86R

$$

NORTH SAN DIEGO COUNTY

CITY           SKY/WX    TMP DP  RH WIND       PRES   REMARKS
CAMP PENDLETON SUNNY     76  67  73 CALM      29.84F
OCEANSIDE AP   SUNNY     76  66  71 CALM      29.84S
OCEANSIDE HBR    N/A     74  70  88 CALM      29.87S
VISTA            N/A     72  67  84 CALM      29.83R
CARLSBAD       MOSUNNY   74  69  85 SW7       29.85R
DEL MAR          N/A     72  70  93 W2        29.88R
LA JOLLA SCRIP   N/A     73  70  91 SW2       29.85R
FALLBROOK        N/A     77  67  69 S2        29.82F
ESCONDIDO        N/A     80  67  65 CALM      29.85S
SAN MARCOS       N/A     75  65  70 CALM      29.87R
POWAY            N/A     81  64  56 CALM      29.85R

$$

EAST SAN DIEGO COUNTY

CITY           SKY/WX    TMP DP  RH WIND       PRES   REMARKS
RAMONA         SUNNY     85  44  23 CALM      29.89R
SANTEE LAKES     N/A     78  63  58 CALM      29.83R
LA MESA          N/A     76  65  70 CALM      29.78R
JAMUL            N/A     80  66  61 CALM      29.83R
DESCANSO N       N/A     90  52  27 SE3       29.74S
MT. LAGUNA OBS   N/A     82  47  29 E5        29.78R
CAMPO            N/A     88  48  25 SW7       29.92R

$$

ORANGE COUNTY AND THE LOS ANGELES BASIN

CITY           SKY/WX    TMP DP  RH WIND       PRES   REMARKS
JOHN WAYNE AP  SUNNY     75  66  73 VRB5      29.84S
LAGUNA BEACH     N/A     72  69  90 S6        29.79S
LAKE FOREST FR   N/A     73  62  67 CALM      29.73R
HUNTINGTON BCH   N/A     76  70  83 SW3       29.86S
LOS ALAMITOS   SUNNY     76  65  67 S2        29.84S
FULLERTON      SUNNY     79  63  57 CALM      29.84R
LONG BEACH     SUNNY     77  65  66 VRB3      29.85R
L.A. AP        MOSUNNY   75  65  70 W6        29.85S
L.A. DOWNTOWN  SUNNY     78  63  59 CALM      29.83S

$$

THE INLAND EMPIRE

CITY           SKY/WX    TMP DP  RH WIND       PRES   REMARKS
CORONA         SUNNY     80  60  50 MISG      29.86S
CHINO          SUNNY     82  58  43 CALM      29.87S
ONTARIO        SUNNY     82  55  39 S5        29.87S
SAN BERNARDINO SUNNY     82  52  34 CALM      29.88S
RIVERSIDE AP   SUNNY     82  55  39 CALM      29.86S
MORENO VALLEY    N/A     86  59  39 CALM      28.02R
MARCH ARB      SUNNY     83  53  35 CALM      29.89S
HORSETHIEF CYN   N/A     83  49  30 CALM      29.84F
PERRIS           N/A     82  55  38 NW2       29.88S
HEMET EAST       N/A     81  47  29 CALM      29.71R
FRENCH VALLEY  FAIR      84  52  32 CALM      29.89S
TEMECULA         N/A     78  55  45 W1        29.84F

$$

SAN BERNARDINO AND RIVERSIDE COUNTY MOUNTAINS

CITY           SKY/WX    TMP DP  RH WIND       PRES   REMARKS
BIG BEAR AP    SUNNY     77  46  33 W3        30.29F
PINE COVE        N/A     80  47  30 CALM      29.78R

$$

SOUTHERN DESERT INCLUDING THE COACHELLA VALLEY

CITY           SKY/WX    TMP DP  RH WIND       PRES   REMARKS
PALM SPRINGS   SUNNY     91  72  53 E5        29.83F HX  98
THOUSAND PALMS   N/A     92  73  53 E5        29.77F HX 100
PALM DESERT      N/A     93  75  55 CALM        N/A  HX 104
THERMAL        SUNNY     92  73  53 VRB5      29.76S HX 100
IMPERIAL AP    MOSUNNY   93  77  59 CALM      29.74S HX 107
EL CENTRO NAS  MOSUNNY   91  74  57 CALM      29.76S HX 100
YUMA AZ        MOSUNNY   93  73  52 S18       29.78  HX 102
MEXICALI       MOSUNNY   91  73  55 SE14      29.77R HX 100

$$

UPPER DESERT

CITY           SKY/WX    TMP DP  RH WIND       PRES   REMARKS
VICTORVILLE AP SUNNY     91  39  16 CALM      29.96F
HESPERIA         N/A     91  50  24 CALM      29.86S
PALMDALE       SUNNY     91  45  20 N6        29.94S
LANCASTER      SUNNY     90  44  20 CALM      29.93S
EDWARDS AFB    MOSUNNY   89  41  18 SW7       29.90S
DAGGETT        SUNNY     95  42  16 W15       29.87S
29 PALMS N     SUNNY     96  43  16 NE3       29.95S
NEEDLES        MOSUNNY  104  59  22 E5        29.80R HX 104

$$

REGIONAL REPORTS

CITY           SKY/WX    TMP DP  RH WIND       PRES   REMARKS
SANTA BARBARA  SUNNY     69  63  81 CALM      29.86R
SANDBERG       SUNNY     89  37  16 NW12      30.11R
LAS VEGAS NV   CLOUDY    99  46  16 CALM      29.85R HX  95
PHOENIX AZ     MOSUNNY   96  62  32 W14       29.84R HX  97
TIJUANA        SUNNY     75  63  64 SW6       29.90R
ENSENADA NW      N/A     71  32  24 SW1       29.85S

$$

OFFSHORE ISLANDS

CITY           SKY/WX    TMP DP  RH WIND       PRES   REMARKS
CATALINA ARPT  SUNNY     80  58  46 CALM      29.90S
SAN CLEMENTE I PTSUNNY   66  61  84 SW12      29.88R
SAN NICOLAS IS MOSUNNY   68  32  26 W16       29.87S

$$

MARINE AND OFFSHORE BUOY REPORTS

STATION/POSITION SKY/WX   TEMP    WIND        PRES    SWELL
                          AIR SEA DIR/SP/G            HT/PER/DIR
                          (F)     (DEG/KT/KT) (MB)    (FT/S/D)
TANNER BANKS               61 65  300/ 12/ 16 1012.0R   5/310/10
S CLEMENTE BASIN           66 69  290/ 10/ 10 1011.1R   3/220/ 8
SAN NICOLAS IS.               63                N/A     2/310/11
SO. S. ROSA ISLA           60 66  310/ 14/ 17 1011.6R   5/320/10
W. S. BARBARA CH           58 63  310/ 17/ 21 1011.2R   3/310/11
M. S. BARBARA CH                  220/  6/  8 1011.3R
S. MONICA BASIN            68 70  330/  6/  8 1010.5R
S PEDRO CHANNEL               71                N/A     2/170/12
OCEANSIDE OFFSHR              76                N/A     2/210/13
LA JOLLA 1                 75 66   CALM  /  2 1010.5R
SAN DIEGO BAY                 77              1010.9R
POINT LOMA SOUTH              73                N/A     2/180/11

$$





USA.gov is the U.S. government's official web portal to all federal, state and local government web resources and services.